Location: Unspecified
(0.0000°N, 0.0000°E)
Time: 22:43:55
(UTC+00:00)

PAYLOAD G - Pass Details

Date: 12 August 2024
Orbit: 808 x 820 km, 98.7° (Epoch: 12 September)

Event Time Altitude Azimuth Distance (km) Brightness Sun altitude
Rises 18:47:10 0° 195° (SSW) 3,325 ? -10.2°
Reaches altitude 10° 18:50:06 10° 211° (SSW) 2,392 ? -10.9°
Maximum altitude 18:53:51 20° 257° (WSW) 1,794 ? -11.8°
Drops below altitude 10° 18:57:38 10° 303° (WNW) 2,390 ? -12.7°
Sets 19:00:34 0° 320° (NW) 3,320 ? -13.4°
